Terminal Aerodrome Forecast
Issued by NWS Twin Cities, MN

Home | Current Version | Previous Version | Text Only | Print | Product List | Glossary On
Versions: 1 2 3 4 5 6 7 8 9 10 11 12
000
FTUS43 KMPX 232320
TAFSTC
TAF
KSTC 232320Z 2400/2424 18006KT P6SM BKN060 OVC100
     FM241400 10004KT 6SM -RA BR OVC040
     FM241800 11008KT 3SM -RA BR OVC025=

USA.gov is the U.S. government's official web portal to all federal, state and local government web resources and services.